Change the Weather History Date:

Friday, August 30, 2013

  Actual Average Record
Temperature  
Mean Temperature 82 °F 71 °F  
Max Temperature 96 °F 87 °F 102 °F (1990)
Min Temperature 67 °F 55 °F 43 °F (1944)
Degree Days  
Heating Degree Days 0 0  
Month to date heating degree days 0 0  
Since 1 June heating degree days 17 26  
Since 1 July heating degree days 0 1  
Cooling Degree Days 17 6  
Month to date cooling degree days 306 259  
Year to date cooling degree days 1045 804  
Since 1 June cooling degree days 972 770  
Growing Degree Days 31 (Base 50)    
Moisture  
Dew Point 47 °F    
Average Humidity 35    
Maximum Humidity 56    
Minimum Humidity 14    
Precipitation  
Precipitation 0.00 in 0.06 in 0.73 in (1974)
Month to date precipitation 3.92 2.26  
Year to date precipitation 7.80 10.17  
Snow  
Snow 0.00 in 0.00 in 0.00 in (2002)
Month to date snowfall 0.0 0.0  
Since 1 June snowfall T 0.0  
Since 1 July snowfall T 0.0  
Snow Depth 0.00 in    
Sea Level Pressure  
Sea Level Pressure 29.91 in    
Wind  
Wind Speed 8 mph (South)    
Max Wind Speed 25 mph    
Max Gust Speed 30 mph    
Visibility 10 miles    
Events      
T = Trace of Precipitation, MM = Missing Value Source: NWS Daily Summary

Daily Weather History Graph

Daily Weather History Graph

Search for Another Location

Airport or City:

Trip Planner

Search our weather history database for the weather conditions in past years. The results will help you decide how hot, cold, wet, or windy it might be!

Date:

Astronomy

Aug. 30, 2013 Rise Set
Actual Time 6:26 AM MDT 7:30 PM MDT
Civil Twilight 5:58 AM MDT 7:57 PM MDT
Nautical Twilight 5:26 AM MDT 8:29 PM MDT
Astronomical Twilight 4:52 AM MDT 9:03 PM MDT
Moon 1:09 AM MDT (8/30) 3:45 PM MDT (8/30)
Length of Visible Light 13h 58m
Length of Day
13h 04m
Waning Crescent, 28% of the Moon is Illuminated
Aug 30
Waning Crescent
Sep 5
New
Sep 12
First Quarter
Sep 19
Full
Sep 26
Last Quarter

Hourly Weather History & Observations

Time (MDT) Temp. Dew Point Humidity Pressure Visibility Wind Dir Wind Speed Gust Speed Precip Events Conditions
12:53 AM 75.0 °F 48.0 °F 38% 29.93 in 10.0 mi West 12.7 mph - N/A   Clear
1:53 AM 72.0 °F 48.0 °F 43% 29.94 in 10.0 mi Variable 5.8 mph - N/A   Clear
2:53 AM 71.1 °F 48.9 °F 45% 29.94 in 10.0 mi West 6.9 mph - N/A   Clear
3:53 AM 69.1 °F 48.9 °F 49% 29.94 in 10.0 mi West 5.8 mph - N/A   Clear
4:53 AM 66.9 °F 48.9 °F 52% 29.94 in 10.0 mi West 5.8 mph - N/A   Clear
5:53 AM 66.9 °F 50.0 °F 54% 29.95 in 10.0 mi WSW 8.1 mph - N/A   Clear
6:53 AM 68.0 °F 51.1 °F 55% 29.97 in 9.0 mi WSW 6.9 mph - N/A   Clear
7:53 AM 72.0 °F 52.0 °F 49% 29.98 in 10.0 mi Calm Calm - N/A   Clear
8:53 AM 78.1 °F 52.0 °F 40% 29.99 in 10.0 mi Calm Calm - N/A   Clear
9:53 AM 82.0 °F 52.0 °F 35% 29.97 in 10.0 mi SW 3.5 mph - N/A   Clear
10:53 AM 88.0 °F 48.9 °F 26% 29.95 in 10.0 mi Calm Calm - N/A   Clear
11:53 AM 91.0 °F 46.0 °F 21% 29.94 in 10.0 mi Variable 4.6 mph - N/A   Clear
12:53 PM 93.0 °F 42.1 °F 17% 29.92 in 10.0 mi SE 6.9 mph - N/A   Clear
1:53 PM 95.0 °F 42.1 °F 16% 29.90 in 10.0 mi SE 10.4 mph - N/A   Clear
2:53 PM 93.9 °F 42.1 °F 17% 29.88 in 10.0 mi ESE 9.2 mph - N/A   Clear
3:53 PM 95.0 °F 41.0 °F 15% 29.86 in 10.0 mi SE 11.5 mph - N/A   Clear
4:53 PM 95.0 °F 39.9 °F 15% 29.85 in 10.0 mi SE 6.9 mph - N/A   Clear
5:53 PM 93.9 °F 37.9 °F 14% 29.84 in 10.0 mi ESE 11.5 mph - N/A   Clear
6:53 PM 91.0 °F 37.9 °F 15% 29.84 in 10.0 mi East 8.1 mph - N/A   Clear
7:53 PM 84.0 °F 50.0 °F 31% 29.87 in 10.0 mi North 21.9 mph 29.9 mph N/A   Clear
8:53 PM 80.1 °F 51.1 °F 36% 29.87 in 10.0 mi North 16.1 mph - N/A   Clear
9:53 PM 80.1 °F 48.9 °F 34% 29.87 in 10.0 mi North 17.3 mph - N/A   Clear
10:53 PM 81.0 °F 48.0 °F 31% 29.86 in 10.0 mi North 15.0 mph - N/A   Clear
11:53 PM 81.0 °F 48.0 °F 31% 29.86 in 10.0 mi Calm Calm - N/A   Clear